Time,TemperatureF,DewpointF,PressureIn,WindDirection,WindDirectionDegrees,WindSpeedMPH,WindSpeedGustMPH,Humidity,HourlyPrecipIn,Conditions,Clouds,dailyrainin,SolarRadiationWatts/m^2,SoftwareType,DateUTC
2013-01-07 00:00:00,46.8,43.7,30.15,North,5,5.0,10.0,89,0.00,,,0.00,1071,Wunderground v.1.15,2013-01-07 05:00:00,
2013-01-07 00:10:00,46.7,43.6,30.15,North,6,7.0,10.0,89,0.00,,,0.00,1071,Wunderground v.1.15,2013-01-07 05:10:00,
2013-01-07 00:15:00,46.7,43.6,30.15,North,350,7.0,10.0,89,0.00,,,0.00,1071,Wunderground v.1.15,2013-01-07 05:15:00,
2013-01-07 00:20:00,46.6,43.5,30.16,NNE,21,7.0,7.0,89,0.00,,,0.00,1071,Wunderground v.1.15,2013-01-07 05:20:00,
2013-01-07 00:25:00,46.5,43.7,30.16,NNE,17,7.0,9.0,90,0.00,,,0.00,1071,Wunderground v.1.15,2013-01-07 05:25:00,
2013-01-07 00:30:00,46.4,43.6,30.16,NNW,347,7.0,7.0,90,0.00,,,0.00,1071,Wunderground v.1.15,2013-01-07 05:30:00,
2013-01-07 00:35:00,46.2,43.4,30.16,North,9,7.0,10.0,90,0.00,,,0.00,1071,Wunderground v.1.15,2013-01-07 05:35:00,
2013-01-07 00:40:00,46.2,43.4,30.16,NNW,346,7.0,7.0,90,0.00,,,0.00,1071,Wunderground v.1.15,2013-01-07 05:40:00,
2013-01-07 00:45:00,46.1,43.3,30.16,North,9,7.0,10.0,90,0.00,,,0.00,1071,Wunderground v.1.15,2013-01-07 05:45:00,
2013-01-07 00:50:00,46.0,43.2,30.16,NNW,347,7.0,7.0,90,0.00,,,0.00,1071,Wunderground v.1.15,2013-01-07 05:50:00,
2013-01-07 00:55:00,46.0,43.2,30.16,North,357,6.0,8.0,90,0.00,,,0.00,1071,Wunderground v.1.15,2013-01-07 05:55:00,
2013-01-07 01:05:00,45.9,43.1,30.17,NNW,348,6.0,14.0,90,0.00,,,0.00,1071,Wunderground v.1.15,2013-01-07 06:05:00,
2013-01-07 01:10:00,45.8,43.0,30.17,NNW,345,6.0,14.0,90,0.00,,,0.00,1071,Wunderground v.1.15,2013-01-07 06:10:00,
2013-01-07 01:15:00,45.7,42.9,30.17,NNE,17,7.0,14.0,90,0.00,,,0.00,1071,Wunderground v.1.15,2013-01-07 06:15:00,
2013-01-07 01:20:00,45.7,42.9,30.17,NNE,15,7.0,7.0,90,0.00,,,0.00,1071,Wunderground v.1.15,2013-01-07 06:20:00,
2013-01-07 01:25:00,45.6,42.8,30.17,NNW,330,6.0,14.0,90,0.00,,,0.00,1071,Wunderground v.1.15,2013-01-07 06:25:00,
2013-01-07 01:30:00,45.6,42.8,30.18,NNW,331,6.0,6.0,90,0.00,,,0.00,1071,Wunderground v.1.15,2013-01-07 06:30:00,
2013-01-07 01:40:00,45.5,42.7,30.18,North,352,6.0,14.0,90,0.00,,,0.00,1071,Wunderground v.1.15,2013-01-07 06:40:00,
2013-01-07 01:45:00,45.4,42.6,30.18,NNE,29,6.0,14.0,90,0.00,,,0.00,1071,Wunderground v.1.15,2013-01-07 06:45:00,
2013-01-07 01:50:00,45.3,42.5,30.18,NNW,336,6.0,6.0,90,0.00,,,0.00,1071,Wunderground v.1.15,2013-01-07 06:50:00,
2013-01-07 01:55:00,45.3,42.5,30.18,NNW,347,7.0,7.0,90,0.00,,,0.00,1071,Wunderground v.1.15,2013-01-07 06:55:00,
2013-01-07 02:00:00,45.2,42.4,30.18,North,6,7.0,12.0,90,0.00,,,0.00,1071,Wunderground v.1.15,2013-01-07 07:00:00,
2013-01-07 02:20:00,44.5,41.7,30.19,North,11,8.0,12.0,90,0.00,,,0.00,1071,Wunderground v.1.15,2013-01-07 07:20:00,
2013-01-07 02:25:00,44.3,41.6,30.19,NNW,330,7.0,12.0,90,0.00,,,0.00,1071,Wunderground v.1.15,2013-01-07 07:25:00,
2013-01-07 02:30:00,44.1,41.4,30.19,NNW,347,7.0,12.0,90,0.00,,,0.00,1071,Wunderground v.1.15,2013-01-07 07:30:00,
2013-01-07 02:35:00,43.9,41.2,30.19,NE,43,6.0,12.0,90,0.00,,,0.00,1071,Wunderground v.1.15,2013-01-07 07:35:00,
2013-01-07 02:40:00,43.7,41.0,30.19,NNE,15,6.0,6.0,90,0.00,,,0.00,1071,Wunderground v.1.15,2013-01-07 07:40:00,
2013-01-07 02:45:00,43.5,40.8,30.19,North,354,5.0,12.0,90,0.00,,,0.00,1071,Wunderground v.1.15,2013-01-07 07:45:00,
2013-01-07 02:50:00,43.4,40.7,30.20,NW,319,6.0,6.0,90,0.00,,,0.00,1071,Wunderground v.1.15,2013-01-07 07:50:00,
2013-01-07 02:55:00,43.2,40.5,30.20,North,4,6.0,12.0,90,0.00,,,0.00,1071,Wunderground v.1.15,2013-01-07 07:55:00,
2013-01-07 03:05:00,43.0,40.3,30.20,NNW,335,5.0,13.0,90,0.00,,,0.00,1071,Wunderground v.1.15,2013-01-07 08:05:00,
2013-01-07 03:10:00,42.8,40.1,30.21,NNE,18,5.0,5.0,90,0.00,,,0.00,1071,Wunderground v.1.15,2013-01-07 08:10:00,
2013-01-07 03:15:00,42.7,40.0,30.21,North,6,5.0,6.0,90,0.00,,,0.00,1071,Wunderground v.1.15,2013-01-07 08:15:00,
2013-01-07 03:20:00,42.5,39.8,30.21,NNW,337,6.0,13.0,90,0.00,,,0.00,1071,Wunderground v.1.15,2013-01-07 08:20:00,
2013-01-07 03:25:00,42.4,39.7,30.21,North,350,5.0,13.0,90,0.00,,,0.00,1071,Wunderground v.1.15,2013-01-07 08:25:00,
2013-01-07 03:30:00,42.2,39.5,30.21,NNW,333,5.0,5.0,90,0.00,,,0.00,1071,Wunderground v.1.15,2013-01-07 08:30:00,
2013-01-07 03:35:00,42.0,39.3,30.21,North,8,5.0,6.0,90,0.00,,,0.00,1071,Wunderground v.1.15,2013-01-07 08:35:00,
2013-01-07 03:40:00,41.9,39.5,30.21,NE,39,4.0,13.0,91,0.00,,,0.00,1071,Wunderground v.1.15,2013-01-07 08:40:00,
2013-01-07 03:45:00,41.7,39.3,30.22,NNE,26,4.0,13.0,91,0.00,,,0.00,1071,Wunderground v.1.15,2013-01-07 08:45:00,
2013-01-07 03:50:00,41.5,39.1,30.21,NNW,338,4.0,4.0,91,0.00,,,0.00,1071,Wunderground v.1.15,2013-01-07 08:50:00,
2013-01-07 03:55:00,41.3,38.9,30.22,NNW,346,4.0,13.0,91,0.00,,,0.00,1071,Wunderground v.1.15,2013-01-07 08:55:00,
2013-01-07 04:00:00,41.2,38.8,30.22,North,356,4.0,4.0,91,0.00,,,0.00,1071,Wunderground v.1.15,2013-01-07 09:00:00,
2013-01-07 04:05:00,41.0,38.6,30.22,North,351,3.0,9.0,91,0.00,,,0.00,1071,Wunderground v.1.15,2013-01-07 09:05:00,
2013-01-07 04:15:00,40.8,38.4,30.22,NNW,347,3.0,9.0,91,0.00,,,0.00,1071,Wunderground v.1.15,2013-01-07 09:15:00,
2013-01-07 04:20:00,40.6,38.2,30.22,NNE,30,3.0,9.0,91,0.00,,,0.00,1071,Wunderground v.1.15,2013-01-07 09:20:00,
2013-01-07 04:25:00,40.5,38.1,30.23,NNE,12,3.0,9.0,91,0.00,,,0.00,1071,Wunderground v.1.15,2013-01-07 09:25:00,
2013-01-07 04:30:00,40.3,37.9,30.22,North,4,3.0,9.0,91,0.00,,,0.00,1071,Wunderground v.1.15,2013-01-07 09:30:00,
2013-01-07 04:35:00,40.2,37.8,30.22,NNE,15,2.0,9.0,91,0.00,,,0.00,1071,Wunderground v.1.15,2013-01-07 09:35:00,
2013-01-07 04:40:00,40.0,37.6,30.23,North,1,2.0,9.0,91,0.00,,,0.00,1071,Wunderground v.1.15,2013-01-07 09:40:00,
2013-01-07 04:45:00,39.9,37.8,30.23,North,9,2.0,9.0,92,0.00,,,0.00,1071,Wunderground v.1.15,2013-01-07 09:45:00,
2013-01-07 04:50:00,39.7,37.6,30.23,NNW,347,2.0,9.0,92,0.00,,,0.00,1071,Wunderground v.1.15,2013-01-07 09:50:00,
2013-01-07 04:55:00,39.6,37.5,30.23,North,6,2.0,9.0,92,0.00,,,0.00,1071,Wunderground v.1.15,2013-01-07 09:55:00,
2013-01-07 05:00:00,39.5,37.4,30.23,NNE,18,2.0,2.0,92,0.00,,,0.00,1071,Wunderground v.1.15,2013-01-07 10:00:00,
2013-01-07 05:05:00,39.4,37.3,30.23,NNW,344,2.0,5.0,92,0.00,,,0.00,1071,Wunderground v.1.15,2013-01-07 10:05:00,
2013-01-07 05:10:00,39.3,37.2,30.23,NNW,338,1.0,1.0,92,0.00,,,0.00,1071,Wunderground v.1.15,2013-01-07 10:10:00,
2013-01-07 05:15:00,39.1,37.0,30.23,NNE,15,1.0,5.0,92,0.00,,,0.00,1071,Wunderground v.1.15,2013-01-07 10:15:00,
2013-01-07 05:20:00,39.0,36.9,30.23,NNE,18,1.0,1.0,92,0.00,,,0.00,1071,Wunderground v.1.15,2013-01-07 10:20:00,
2013-01-07 05:25:00,38.9,36.8,30.24,North,354,2.0,2.0,92,0.00,,,0.00,1071,Wunderground v.1.15,2013-01-07 10:25:00,
2013-01-07 05:35:00,38.6,36.5,30.24,NNW,347,2.0,5.0,92,0.00,,,0.00,1071,Wunderground v.1.15,2013-01-07 10:35:00,
2013-01-07 05:40:00,38.5,36.4,30.25,NNW,332,3.0,5.0,92,0.00,,,0.00,1071,Wunderground v.1.15,2013-01-07 10:40:00,
2013-01-07 05:45:00,38.5,36.4,30.25,NNW,338,3.0,5.0,92,0.00,,,0.00,1071,Wunderground v.1.15,2013-01-07 10:45:00,
2013-01-07 05:50:00,38.5,36.4,30.25,NNW,345,3.0,3.0,92,0.00,,,0.00,1071,Wunderground v.1.15,2013-01-07 10:50:00,
2013-01-07 05:55:00,38.5,36.4,30.25,North,4,3.0,5.0,92,0.00,,,0.00,1071,Wunderground v.1.15,2013-01-07 10:55:00,
2013-01-07 06:00:00,38.4,36.3,30.25,NNE,20,3.0,3.0,92,0.00,,,0.00,1071,Wunderground v.1.15,2013-01-07 11:00:00,
2013-01-07 06:05:00,38.3,36.2,30.25,North,354,2.0,3.0,92,0.00,,,0.00,1071,Wunderground v.1.15,2013-01-07 11:05:00,
2013-01-07 06:10:00,38.2,36.1,30.26,North,1,2.0,3.0,92,0.00,,,0.00,1071,Wunderground v.1.15,2013-01-07 11:10:00,
2013-01-07 06:15:00,38.1,36.0,30.26,North,350,2.0,3.0,92,0.00,,,0.00,1071,Wunderground v.1.15,2013-01-07 11:15:00,
2013-01-07 06:20:00,38.0,35.9,30.27,NNW,338,2.0,2.0,92,0.00,,,0.00,1071,Wunderground v.1.15,2013-01-07 11:20:00,
2013-01-07 06:25:00,37.9,35.8,30.27,NNW,338,2.0,3.0,92,0.00,,,0.00,1071,Wunderground v.1.15,2013-01-07 11:25:00,
2013-01-07 06:30:00,37.8,35.7,30.28,NNW,327,2.0,3.0,92,0.00,,,0.00,1071,Wunderground v.1.15,2013-01-07 11:30:00,
2013-01-07 06:35:00,37.8,35.7,30.28,NNW,347,2.0,3.0,92,0.00,,,0.00,1071,Wunderground v.1.15,2013-01-07 11:35:00,
2013-01-07 06:45:00,37.6,35.5,30.28,North,8,2.0,4.0,92,0.00,,,0.00,1071,Wunderground v.1.15,2013-01-07 11:45:00,
2013-01-07 06:50:00,37.5,35.4,30.29,NNE,27,2.0,3.0,92,0.00,,,0.00,1071,Wunderground v.1.15,2013-01-07 11:50:00,
2013-01-07 06:55:00,37.5,35.4,30.29,North,349,2.0,3.0,92,0.00,,,0.00,1071,Wunderground v.1.15,2013-01-07 11:55:00,
2013-01-07 07:00:00,37.5,35.4,30.29,NNW,348,2.0,5.0,92,0.00,,,0.00,1071,Wunderground v.1.15,2013-01-07 12:00:00,
2013-01-07 07:10:00,37.4,35.3,30.29,NNE,27,3.0,5.0,92,0.00,,,0.00,1071,Wunderground v.1.15,2013-01-07 12:10:00,
2013-01-07 07:15:00,37.4,35.3,30.30,NNE,20,3.0,5.0,92,0.00,,,0.00,1071,Wunderground v.1.15,2013-01-07 12:15:00,
2013-01-07 07:20:00,37.4,35.3,30.30,NNE,33,3.0,3.0,92,0.00,,,0.00,1071,Wunderground v.1.15,2013-01-07 12:20:00,
2013-01-07 07:25:00,37.3,35.2,30.30,NNE,22,2.0,5.0,92,0.00,,,0.00,1071,Wunderground v.1.15,2013-01-07 12:25:00,
2013-01-07 07:30:00,37.3,35.2,30.31,NNE,19,3.0,5.0,92,0.00,,,0.00,1071,Wunderground v.1.15,2013-01-07 12:30:00,
2013-01-07 07:35:00,37.3,34.9,30.31,NNE,20,3.0,5.0,91,0.00,,,0.00,1071,Wunderground v.1.15,2013-01-07 12:35:00,
2013-01-07 07:40:00,37.2,34.8,30.31,NNW,348,3.0,5.0,91,0.00,,,0.00,1071,Wunderground v.1.15,2013-01-07 12:40:00,
2013-01-07 07:45:00,37.3,34.9,30.31,NNE,19,3.0,5.0,91,0.00,,,0.00,1071,Wunderground v.1.15,2013-01-07 12:45:00,
2013-01-07 07:50:00,37.4,35.0,30.32,North,9,3.0,3.0,91,0.00,,,0.00,1071,Wunderground v.1.15,2013-01-07 12:50:00,
2013-01-07 07:55:00,37.5,35.1,30.32,NNE,23,3.0,5.0,91,0.00,,,0.00,1071,Wunderground v.1.15,2013-01-07 12:55:00,
2013-01-07 08:00:00,37.5,35.1,30.32,NNE,25,3.0,3.0,91,0.00,,,0.00,1071,Wunderground v.1.15,2013-01-07 13:00:00,
2013-01-07 08:05:00,37.6,34.9,30.32,North,356,3.0,6.0,90,0.00,,,0.00,1071,Wunderground v.1.15,2013-01-07 13:05:00,
2013-01-07 08:10:00,37.6,34.9,30.32,NNE,12,3.0,6.0,90,0.00,,,0.00,1071,Wunderground v.1.15,2013-01-07 13:10:00,
2013-01-07 08:15:00,37.6,34.9,30.33,North,351,3.0,6.0,90,0.00,,,0.00,1071,Wunderground v.1.15,2013-01-07 13:15:00,
2013-01-07 08:20:00,37.9,35.2,30.34,North,360,3.0,6.0,90,0.00,,,0.00,1071,Wunderground v.1.15,2013-01-07 13:20:00,
2013-01-07 08:25:00,38.1,35.4,30.33,NNE,18,3.0,6.0,90,0.00,,,0.00,1071,Wunderground v.1.15,2013-01-07 13:25:00,
2013-01-07 08:30:00,38.5,35.8,30.34,North,359,3.0,6.0,90,0.00,,,0.00,1071,Wunderground v.1.15,2013-01-07 13:30:00,
2013-01-07 08:35:00,39.1,36.1,30.34,NNW,340,4.0,6.0,89,0.00,,,0.00,1071,Wunderground v.1.15,2013-01-07 13:35:00,
2013-01-07 08:40:00,39.7,36.7,30.34,NE,41,5.0,6.0,89,0.00,,,0.00,1071,Wunderground v.1.15,2013-01-07 13:40:00,
2013-01-07 08:45:00,40.2,36.9,30.34,NNE,32,5.0,6.0,88,0.00,,,0.00,1071,Wunderground v.1.15,2013-01-07 13:45:00,
2013-01-07 08:50:00,40.8,37.2,30.35,NE,39,5.0,5.0,87,0.00,,,0.00,1071,Wunderground v.1.15,2013-01-07 13:50:00,
2013-01-07 08:55:00,41.3,37.4,30.35,NNE,31,4.0,6.0,86,0.00,,,0.00,1071,Wunderground v.1.15,2013-01-07 13:55:00,
2013-01-07 09:00:00,41.9,37.4,30.36,NNE,26,4.0,9.0,84,0.00,,,0.00,1071,Wunderground v.1.15,2013-01-07 14:00:00,
2013-01-07 09:05:00,42.4,37.3,30.36,NNE,17,5.0,9.0,82,0.00,,,0.00,1071,Wunderground v.1.15,2013-01-07 14:05:00,
2013-01-07 09:10:00,42.9,37.5,30.36,NNE,23,6.0,11.0,81,0.00,,,0.00,1071,Wunderground v.1.15,2013-01-07 14:10:00,
2013-01-07 09:15:00,43.5,37.7,30.37,ENE,58,6.0,11.0,80,0.00,,,0.00,1071,Wunderground v.1.15,2013-01-07 14:15:00,
2013-01-07 09:20:00,44.0,37.3,30.37,NE,37,6.0,9.0,77,0.00,,,0.00,1071,Wunderground v.1.15,2013-01-07 14:20:00,
2013-01-07 09:25:00,44.7,37.3,30.37,NNE,33,7.0,9.0,75,0.00,,,0.00,1071,Wunderground v.1.15,2013-01-07 14:25:00,
2013-01-07 09:30:00,45.1,37.3,30.37,ENE,64,6.0,10.0,74,0.00,,,0.00,1071,Wunderground v.1.15,2013-01-07 14:30:00,
2013-01-07 09:35:00,45.5,37.3,30.37,NE,47,6.0,10.0,73,0.00,,,0.00,1071,Wunderground v.1.15,2013-01-07 14:35:00,
2013-01-07 09:40:00,45.8,37.3,30.37,East,87,7.0,7.0,72,0.00,,,0.00,1071,Wunderground v.1.15,2013-01-07 14:40:00,
2013-01-07 09:45:00,46.2,37.3,30.38,ENE,69,6.0,9.0,71,0.00,,,0.00,1071,Wunderground v.1.15,2013-01-07 14:45:00,
2013-01-07 09:50:00,46.3,37.4,30.38,East,83,6.0,6.0,71,0.00,,,0.00,1071,Wunderground v.1.15,2013-01-07 14:50:00,
2013-01-07 09:55:00,46.6,37.7,30.38,North,352,6.0,9.0,71,0.00,,,0.00,1071,Wunderground v.1.15,2013-01-07 14:55:00,
2013-01-07 10:00:00,46.9,37.6,30.38,NE,44,6.0,6.0,70,0.00,,,0.00,1071,Wunderground v.1.15,2013-01-07 15:00:00,
2013-01-07 10:10:00,47.8,37.7,30.38,ENE,66,7.0,7.0,68,0.00,,,0.00,1071,Wunderground v.1.15,2013-01-07 15:10:00,
2013-01-07 10:15:00,48.4,37.2,30.38,East,81,8.0,8.0,65,0.00,,,0.00,1071,Wunderground v.1.15,2013-01-07 15:15:00,
2013-01-07 10:20:00,48.9,36.4,30.38,East,89,8.0,11.0,62,0.00,,,0.00,1071,Wunderground v.1.15,2013-01-07 15:20:00,
2013-01-07 10:25:00,48.9,36.0,30.38,ENE,77,9.0,14.0,61,0.00,,,0.00,1071,Wunderground v.1.15,2013-01-07 15:25:00,
2013-01-07 10:30:00,49.1,37.0,30.39,NNE,30,9.0,9.0,63,0.00,,,0.00,1071,Wunderground v.1.15,2013-01-07 15:30:00,
2013-01-07 10:35:00,49.2,36.3,30.39,East,86,9.0,13.0,61,0.00,,,0.00,1071,Wunderground v.1.15,2013-01-07 15:35:00,
2013-01-07 10:40:00,49.3,36.0,30.39,ENE,61,9.0,9.0,60,0.00,,,0.00,1071,Wunderground v.1.15,2013-01-07 15:40:00,
2013-01-07 10:45:00,49.5,36.2,30.39,NE,54,9.0,10.0,60,0.00,,,0.00,1071,Wunderground v.1.15,2013-01-07 15:45:00,
2013-01-07 10:50:00,49.7,37.2,30.39,NE,52,9.0,9.0,62,0.00,,,0.00,1071,Wunderground v.1.15,2013-01-07 15:50:00,
2013-01-07 10:55:00,49.8,36.9,30.39,East,101,9.0,11.0,61,0.00,,,0.00,1071,Wunderground v.1.15,2013-01-07 15:55:00,
2013-01-07 11:00:00,49.7,36.4,30.39,ENE,57,9.0,9.0,60,0.00,,,0.00,1071,Wunderground v.1.15,2013-01-07 16:00:00,
2013-01-07 11:05:00,49.7,36.4,30.39,NE,46,9.0,18.0,60,0.00,,,0.00,1071,Wunderground v.1.15,2013-01-07 16:05:00,
2013-01-07 11:10:00,49.7,36.4,30.39,NE,46,8.0,8.0,60,0.00,,,0.00,1071,Wunderground v.1.15,2013-01-07 16:10:00,
2013-01-07 11:15:00,50.1,36.7,30.39,ENE,75,7.0,18.0,60,0.00,,,0.00,1071,Wunderground v.1.15,2013-01-07 16:15:00,
2013-01-07 11:20:00,50.5,37.1,30.39,ENE,67,6.0,18.0,60,0.00,,,0.00,1071,Wunderground v.1.15,2013-01-07 16:20:00,
2013-01-07 11:25:00,50.8,37.0,30.39,NE,54,6.0,18.0,59,0.00,,,0.00,1071,Wunderground v.1.15,2013-01-07 16:25:00,
2013-01-07 11:30:00,50.9,36.6,30.38,ENE,65,6.0,18.0,58,0.00,,,0.00,1071,Wunderground v.1.15,2013-01-07 16:30:00,
2013-01-07 11:35:00,51.4,36.7,30.38,NE,53,7.0,18.0,57,0.00,,,0.00,1071,Wunderground v.1.15,2013-01-07 16:35:00,
2013-01-07 11:40:00,51.3,36.1,30.38,ENE,63,7.0,18.0,56,0.00,,,0.00,1071,Wunderground v.1.15,2013-01-07 16:40:00,
2013-01-07 11:45:00,51.3,37.9,30.38,ESE,112,7.0,18.0,60,0.00,,,0.00,1071,Wunderground v.1.15,2013-01-07 16:45:00,
2013-01-07 11:50:00,51.4,37.5,30.38,East,91,8.0,18.0,59,0.00,,,0.00,1071,Wunderground v.1.15,2013-01-07 16:50:00,
2013-01-07 11:55:00,51.1,37.7,30.38,ENE,77,8.0,18.0,60,0.00,,,0.00,1071,Wunderground v.1.15,2013-01-07 16:55:00,
2013-01-07 12:00:00,51.0,39.2,30.38,East,91,8.0,12.0,64,0.00,,,0.00,1071,Wunderground v.1.15,2013-01-07 17:00:00,
2013-01-07 12:05:00,50.8,38.7,30.38,East,93,8.0,12.0,63,0.00,,,0.00,1071,Wunderground v.1.15,2013-01-07 17:05:00,
2013-01-07 12:10:00,50.9,39.1,30.37,ESE,108,7.0,12.0,64,0.00,,,0.00,1071,Wunderground v.1.15,2013-01-07 17:10:00,
2013-01-07 12:15:00,50.7,39.0,30.37,ESE,102,8.0,12.0,64,0.00,,,0.00,1071,Wunderground v.1.15,2013-01-07 17:15:00,
2013-01-07 12:20:00,50.9,39.1,30.37,East,91,8.0,12.0,64,0.00,,,0.00,1071,Wunderground v.1.15,2013-01-07 17:20:00,
2013-01-07 12:25:00,50.8,38.7,30.36,East,92,8.0,12.0,63,0.00,,,0.00,1071,Wunderground v.1.15,2013-01-07 17:25:00,
2013-01-07 12:30:00,50.9,39.1,30.36,ENE,72,8.0,12.0,64,0.00,,,0.00,1071,Wunderground v.1.15,2013-01-07 17:30:00,
2013-01-07 12:35:00,50.7,39.4,30.36,ENE,60,8.0,12.0,65,0.00,,,0.00,1071,Wunderground v.1.15,2013-01-07 17:35:00,
2013-01-07 12:40:00,50.9,38.7,30.36,East,81,8.0,8.0,63,0.00,,,0.00,1071,Wunderground v.1.15,2013-01-07 17:40:00,
2013-01-07 12:45:00,50.9,39.1,30.36,ESE,106,8.0,10.0,64,0.00,,,0.00,1071,Wunderground v.1.15,2013-01-07 17:45:00,
2013-01-07 12:50:00,51.1,39.7,30.36,ENE,67,8.0,8.0,65,0.00,,,0.00,1071,Wunderground v.1.15,2013-01-07 17:50:00,
2013-01-07 12:55:00,51.2,39.8,30.36,ESE,112,8.0,12.0,65,0.00,,,0.00,1071,Wunderground v.1.15,2013-01-07 17:55:00,
2013-01-07 13:00:00,51.2,39.0,30.36,ENE,64,8.0,13.0,63,0.00,,,0.00,1071,Wunderground v.1.15,2013-01-07 18:00:00,
2013-01-07 13:05:00,51.3,40.3,30.36,East,95,7.0,13.0,66,0.00,,,0.00,1071,Wunderground v.1.15,2013-01-07 18:05:00,
2013-01-07 13:10:00,51.4,40.0,30.36,East,91,7.0,13.0,65,0.00,,,0.00,1071,Wunderground v.1.15,2013-01-07 18:10:00,
2013-01-07 13:15:00,51.5,39.7,30.35,ESE,117,7.0,13.0,64,0.00,,,0.00,1071,Wunderground v.1.15,2013-01-07 18:15:00,
2013-01-07 13:20:00,51.6,39.8,30.36,East,87,7.0,13.0,64,0.00,,,0.00,1071,Wunderground v.1.15,2013-01-07 18:20:00,
2013-01-07 13:25:00,51.7,39.9,30.36,ESE,120,7.0,13.0,64,0.00,,,0.00,1071,Wunderground v.1.15,2013-01-07 18:25:00,
2013-01-07 13:30:00,51.6,39.4,30.36,East,84,8.0,13.0,63,0.00,,,0.00,1071,Wunderground v.1.15,2013-01-07 18:30:00,
2013-01-07 13:35:00,51.7,39.9,30.36,ESE,102,8.0,13.0,64,0.00,,,0.00,1071,Wunderground v.1.15,2013-01-07 18:35:00,
2013-01-07 13:45:00,51.9,39.7,30.36,ESE,117,7.0,13.0,63,0.00,,,0.00,1071,Wunderground v.1.15,2013-01-07 18:45:00,
2013-01-07 13:50:00,52.0,40.2,30.37,ESE,115,6.0,13.0,64,0.00,,,0.00,1071,Wunderground v.1.15,2013-01-07 18:50:00,
2013-01-07 13:55:00,51.8,39.6,30.37,East,93,6.0,13.0,63,0.00,,,0.00,1071,Wunderground v.1.15,2013-01-07 18:55:00,
2013-01-07 14:00:00,52.0,40.2,30.37,East,84,6.0,6.0,64,0.00,,,0.00,1071,Wunderground v.1.15,2013-01-07 19:00:00,
2013-01-07 14:05:00,51.9,39.7,30.37,South,174,6.0,7.0,63,0.00,,,0.00,1071,Wunderground v.1.15,2013-01-07 19:05:00,
2013-01-07 14:10:00,51.9,40.1,30.37,East,94,7.0,14.0,64,0.00,,,0.00,1071,Wunderground v.1.15,2013-01-07 19:10:00,
2013-01-07 14:15:00,52.0,40.6,30.37,East,82,7.0,14.0,65,0.00,,,0.00,1071,Wunderground v.1.15,2013-01-07 19:15:00,
2013-01-07 14:25:00,52.0,40.2,30.37,East,84,7.0,14.0,64,0.00,,,0.00,1071,Wunderground v.1.15,2013-01-07 19:25:00,
2013-01-07 14:30:00,52.0,40.2,30.38,ESE,121,7.0,7.0,64,0.00,,,0.00,1071,Wunderground v.1.15,2013-01-07 19:30:00,
2013-01-07 14:35:00,51.9,40.1,30.38,SE,141,6.0,14.0,64,0.00,,,0.00,1071,Wunderground v.1.15,2013-01-07 19:35:00,
2013-01-07 14:40:00,52.0,39.8,30.38,SE,127,6.0,14.0,63,0.00,,,0.00,1071,Wunderground v.1.15,2013-01-07 19:40:00,
2013-01-07 14:45:00,51.9,39.7,30.38,SE,129,7.0,14.0,63,0.00,,,0.00,1071,Wunderground v.1.15,2013-01-07 19:45:00,
2013-01-07 14:50:00,51.9,40.5,30.38,ESE,111,7.0,7.0,65,0.00,,,0.00,1071,Wunderground v.1.15,2013-01-07 19:50:00,
2013-01-07 15:00:00,51.7,40.3,30.39,South,179,7.0,7.0,65,0.00,,,0.00,1071,Wunderground v.1.15,2013-01-07 20:00:00,
2013-01-07 15:05:00,51.7,40.3,30.39,East,80,8.0,8.0,65,0.00,,,0.00,1071,Wunderground v.1.15,2013-01-07 20:05:00,
2013-01-07 15:10:00,51.8,40.0,30.39,ESE,112,7.0,13.0,64,0.00,,,0.00,1071,Wunderground v.1.15,2013-01-07 20:10:00,
2013-01-07 15:20:00,51.7,40.7,30.39,East,101,7.0,13.0,66,0.00,,,0.00,1071,Wunderground v.1.15,2013-01-07 20:20:00,
2013-01-07 15:30:00,51.6,40.2,30.39,SE,134,7.0,13.0,65,0.00,,,0.00,1071,Wunderground v.1.15,2013-01-07 20:30:00,
2013-01-07 15:35:00,51.5,40.9,30.39,ESE,114,8.0,13.0,67,0.00,,,0.00,1071,Wunderground v.1.15,2013-01-07 20:35:00,
2013-01-07 15:40:00,51.5,40.5,30.39,SE,137,8.0,13.0,66,0.00,,,0.00,1071,Wunderground v.1.15,2013-01-07 20:40:00,
2013-01-07 15:45:00,51.5,40.9,30.40,SSE,156,7.0,13.0,67,0.00,,,0.00,1071,Wunderground v.1.15,2013-01-07 20:45:00,
2013-01-07 15:50:00,51.4,41.2,30.40,SE,135,8.0,8.0,68,0.00,,,0.00,1071,Wunderground v.1.15,2013-01-07 20:50:00,
2013-01-07 15:55:00,51.4,40.8,30.40,ESE,108,8.0,13.0,67,0.00,,,0.00,1071,Wunderground v.1.15,2013-01-07 20:55:00,
2013-01-07 16:00:00,51.3,40.7,30.40,SE,133,7.0,14.0,67,0.00,,,0.00,1071,Wunderground v.1.15,2013-01-07 21:00:00,
2013-01-07 16:05:00,51.2,40.2,30.40,ESE,121,8.0,14.0,66,0.00,,,0.00,1071,Wunderground v.1.15,2013-01-07 21:05:00,
2013-01-07 16:10:00,51.2,40.6,30.40,SE,138,9.0,9.0,67,0.00,,,0.00,1071,Wunderground v.1.15,2013-01-07 21:10:00,
2013-01-07 16:15:00,51.2,41.0,30.40,East,93,8.0,14.0,68,0.00,,,0.00,1071,Wunderground v.1.15,2013-01-07 21:15:00,
2013-01-07 16:20:00,51.2,41.0,30.40,ESE,104,7.0,14.0,68,0.00,,,0.00,1071,Wunderground v.1.15,2013-01-07 21:20:00,
2013-01-07 16:25:00,51.2,41.0,30.40,ESE,106,7.0,14.0,68,0.00,,,0.00,1071,Wunderground v.1.15,2013-01-07 21:25:00,
2013-01-07 16:30:00,51.2,41.4,30.40,East,99,6.0,14.0,69,0.00,,,0.00,1071,Wunderground v.1.15,2013-01-07 21:30:00,
2013-01-07 16:35:00,51.1,40.9,30.40,East,97,7.0,14.0,68,0.00,,,0.00,1071,Wunderground v.1.15,2013-01-07 21:35:00,
2013-01-07 16:40:00,51.0,41.2,30.40,ESE,109,8.0,8.0,69,0.00,,,0.00,1071,Wunderground v.1.15,2013-01-07 21:40:00,
2013-01-07 16:45:00,51.0,41.2,30.40,SE,124,7.0,14.0,69,0.00,,,0.00,1071,Wunderground v.1.15,2013-01-07 21:45:00,
2013-01-07 16:50:00,50.7,40.5,30.39,ESE,114,7.0,7.0,68,0.00,,,0.00,1071,Wunderground v.1.15,2013-01-07 21:50:00,
2013-01-07 16:55:00,50.4,40.6,30.40,ENE,61,8.0,8.0,69,0.00,,,0.00,1071,Wunderground v.1.15,2013-01-07 21:55:00,
2013-01-07 17:00:00,50.3,41.3,30.40,ENE,74,8.0,14.0,71,0.00,,,0.00,1071,Wunderground v.1.15,2013-01-07 22:00:00,
2013-01-07 17:05:00,50.2,41.2,30.40,East,79,9.0,14.0,71,0.00,,,0.00,1071,Wunderground v.1.15,2013-01-07 22:05:00,
2013-01-07 17:10:00,50.1,41.1,30.40,East,101,9.0,9.0,71,0.00,,,0.00,1071,Wunderground v.1.15,2013-01-07 22:10:00,
2013-01-07 17:15:00,50.1,41.4,30.41,East,91,9.0,14.0,72,0.00,,,0.00,1071,Wunderground v.1.15,2013-01-07 22:15:00,
2013-01-07 17:20:00,49.9,40.9,30.41,East,85,8.0,8.0,71,0.00,,,0.00,1071,Wunderground v.1.15,2013-01-07 22:20:00,
2013-01-07 17:25:00,49.9,41.2,30.41,East,82,7.0,9.0,72,0.00,,,0.00,1071,Wunderground v.1.15,2013-01-07 22:25:00,
2013-01-07 17:30:00,49.8,41.1,30.41,SSE,158,7.0,7.0,72,0.00,,,0.00,1071,Wunderground v.1.15,2013-01-07 22:30:00,
2013-01-07 17:35:00,49.7,40.7,30.42,East,93,7.0,14.0,71,0.00,,,0.00,1071,Wunderground v.1.15,2013-01-07 22:35:00,
2013-01-07 17:40:00,49.7,41.4,30.42,SE,131,6.0,14.0,73,0.00,,,0.00,1071,Wunderground v.1.15,2013-01-07 22:40:00,
2013-01-07 17:45:00,49.7,41.0,30.42,East,97,6.0,14.0,72,0.00,,,0.00,1071,Wunderground v.1.15,2013-01-07 22:45:00,
2013-01-07 17:50:00,49.7,41.7,30.42,ESE,120,7.0,14.0,74,0.00,,,0.00,1071,Wunderground v.1.15,2013-01-07 22:50:00,
2013-01-07 17:55:00,49.6,42.3,30.43,SE,136,7.0,14.0,76,0.00,,,0.00,1071,Wunderground v.1.15,2013-01-07 22:55:00,
2013-01-07 18:00:00,49.5,42.2,30.43,SSE,160,8.0,8.0,76,0.00,,,0.00,1071,Wunderground v.1.15,2013-01-07 23:00:00,
2013-01-07 18:05:00,49.4,41.5,30.43,SE,139,8.0,14.0,74,0.00,,,0.00,1071,Wunderground v.1.15,2013-01-07 23:05:00,
2013-01-07 18:10:00,49.3,41.7,30.43,ENE,78,7.0,7.0,75,0.00,,,0.00,1071,Wunderground v.1.15,2013-01-07 23:10:00,
2013-01-07 18:15:00,49.3,41.4,30.43,East,92,7.0,8.0,74,0.00,,,0.00,1071,Wunderground v.1.15,2013-01-07 23:15:00,
2013-01-07 18:20:00,49.3,41.4,30.43,East,101,7.0,14.0,74,0.00,,,0.00,1071,Wunderground v.1.15,2013-01-07 23:20:00,
2013-01-07 18:25:00,49.2,41.6,30.43,ESE,119,7.0,14.0,75,0.00,,,0.00,1071,Wunderground v.1.15,2013-01-07 23:25:00,
2013-01-07 19:30:00,48.5,41.6,30.44,SE,134,9.0,9.0,77,0.00,,,0.00,1071,Wunderground v.1.15,2013-01-08 00:30:00,
2013-01-07 19:35:00,48.5,41.6,30.44,ENE,76,9.0,12.0,77,0.00,,,0.00,1071,Wunderground v.1.15,2013-01-08 00:35:00,
2013-01-07 19:40:00,48.3,41.4,30.44,ENE,68,9.0,15.0,77,0.00,,,0.00,1071,Wunderground v.1.15,2013-01-08 00:40:00,
2013-01-07 19:45:00,48.2,41.3,30.44,East,101,10.0,15.0,77,0.00,,,0.00,1071,Wunderground v.1.15,2013-01-08 00:45:00,
2013-01-07 19:50:00,48.1,41.2,30.44,East,101,11.0,15.0,77,0.00,,,0.00,1071,Wunderground v.1.15,2013-01-08 00:50:00,
2013-01-07 19:55:00,48.1,41.2,30.44,East,101,10.0,15.0,77,0.00,,,0.00,1071,Wunderground v.1.15,2013-01-08 00:55:00,
2013-01-07 20:00:00,47.9,41.0,30.44,East,97,10.0,15.0,77,0.00,,,0.00,1071,Wunderground v.1.15,2013-01-08 01:00:00,
2013-01-07 20:05:00,47.9,40.7,30.44,ESE,105,11.0,15.0,76,0.00,,,0.00,1071,Wunderground v.1.15,2013-01-08 01:05:00,
2013-01-07 20:10:00,47.8,40.6,30.44,SE,127,10.0,10.0,76,0.00,,,0.00,1071,Wunderground v.1.15,2013-01-08 01:10:00,
2013-01-07 20:15:00,47.7,40.2,30.44,East,85,11.0,11.0,75,0.00,,,0.00,1071,Wunderground v.1.15,2013-01-08 01:15:00,
2013-01-07 20:20:00,47.7,40.2,30.44,East,86,11.0,15.0,75,0.00,,,0.00,1071,Wunderground v.1.15,2013-01-08 01:20:00,
2013-01-07 20:25:00,47.7,40.5,30.44,East,101,10.0,15.0,76,0.00,,,0.00,1071,Wunderground v.1.15,2013-01-08 01:25:00,
2013-01-07 20:30:00,47.6,40.1,30.44,ESE,103,9.0,9.0,75,0.00,,,0.00,1071,Wunderground v.1.15,2013-01-08 01:30:00,
2013-01-07 20:35:00,47.6,40.1,30.44,ESE,121,9.0,15.0,75,0.00,,,0.00,1071,Wunderground v.1.15,2013-01-08 01:35:00,
2013-01-07 20:40:00,47.4,39.5,30.44,East,89,9.0,9.0,74,0.00,,,0.00,1071,Wunderground v.1.15,2013-01-08 01:40:00,
2013-01-07 20:45:00,47.2,39.3,30.44,SE,145,7.0,15.0,74,0.00,,,0.00,1071,Wunderground v.1.15,2013-01-08 01:45:00,
2013-01-07 20:50:00,47.3,40.1,30.44,ENE,60,7.0,15.0,76,0.00,,,0.00,1071,Wunderground v.1.15,2013-01-08 01:50:00,
2013-01-07 20:55:00,47.2,40.0,30.44,SE,136,8.0,15.0,76,0.00,,,0.00,1071,Wunderground v.1.15,2013-01-08 01:55:00,
2013-01-07 21:00:00,47.1,40.3,30.44,ENE,76,7.0,17.0,77,0.00,,,0.00,1071,Wunderground v.1.15,2013-01-08 02:00:00,
2013-01-07 21:10:00,46.7,39.5,30.44,ENE,60,7.0,7.0,76,0.00,,,0.00,1071,Wunderground v.1.15,2013-01-08 02:10:00,
2013-01-07 21:15:00,45.7,39.2,30.44,NNE,20,5.0,17.0,78,0.00,,,0.00,1071,Wunderground v.1.15,2013-01-08 02:15:00,
2013-01-07 21:20:00,45.1,39.3,30.44,ENE,58,4.0,4.0,80,0.00,,,0.00,1071,Wunderground v.1.15,2013-01-08 02:20:00,
2013-01-07 21:25:00,44.7,39.2,30.44,East,93,4.0,17.0,81,0.00,,,0.00,1071,Wunderground v.1.15,2013-01-08 02:25:00,
2013-01-07 21:30:00,44.3,38.8,30.44,ENE,72,4.0,17.0,81,0.00,,,0.00,1071,Wunderground v.1.15,2013-01-08 02:30:00,
2013-01-07 21:35:00,44.0,38.9,30.44,NE,43,4.0,17.0,82,0.00,,,0.00,1071,Wunderground v.1.15,2013-01-08 02:35:00,
2013-01-07 21:40:00,43.8,38.7,30.44,East,83,4.0,17.0,82,0.00,,,0.00,1071,Wunderground v.1.15,2013-01-08 02:40:00,
2013-01-07 21:45:00,43.5,38.7,30.43,ENE,70,4.0,17.0,83,0.00,,,0.00,1071,Wunderground v.1.15,2013-01-08 02:45:00,
2013-01-07 21:50:00,43.2,38.4,30.43,East,81,5.0,17.0,83,0.00,,,0.00,1071,Wunderground v.1.15,2013-01-08 02:50:00,
2013-01-07 21:55:00,43.0,38.2,30.43,ENE,66,5.0,17.0,83,0.00,,,0.00,1071,Wunderground v.1.15,2013-01-08 02:55:00,
2013-01-07 22:00:00,42.9,38.1,30.43,ENE,64,5.0,5.0,83,0.00,,,0.00,1071,Wunderground v.1.15,2013-01-08 03:00:00,
2013-01-07 22:05:00,42.8,38.3,30.43,ENE,70,5.0,11.0,84,0.00,,,0.00,1071,Wunderground v.1.15,2013-01-08 03:05:00,
2013-01-07 22:10:00,42.7,38.2,30.43,NE,47,5.0,11.0,84,0.00,,,0.00,1071,Wunderground v.1.15,2013-01-08 03:10:00,
2013-01-07 22:15:00,42.9,38.4,30.43,East,79,5.0,11.0,84,0.00,,,0.00,1071,Wunderground v.1.15,2013-01-08 03:15:00,
2013-01-07 22:20:00,42.9,38.1,30.42,ENE,73,5.0,11.0,83,0.00,,,0.00,1071,Wunderground v.1.15,2013-01-08 03:20:00,
2013-01-07 22:25:00,42.9,38.4,30.42,East,99,5.0,11.0,84,0.00,,,0.00,1071,Wunderground v.1.15,2013-01-08 03:25:00,
2013-01-07 22:30:00,42.8,38.3,30.42,ENE,61,5.0,11.0,84,0.00,,,0.00,1071,Wunderground v.1.15,2013-01-08 03:30:00,
2013-01-07 22:35:00,42.8,38.3,30.42,ENE,71,5.0,11.0,84,0.00,,,0.00,1071,Wunderground v.1.15,2013-01-08 03:35:00,
2013-01-07 22:40:00,42.7,38.2,30.42,ENE,60,5.0,11.0,84,0.00,,,0.00,1071,Wunderground v.1.15,2013-01-08 03:40:00,
2013-01-07 22:45:00,42.7,38.2,30.41,ENE,74,6.0,11.0,84,0.00,,,0.00,1071,Wunderground v.1.15,2013-01-08 03:45:00,
2013-01-07 22:50:00,42.7,38.2,30.41,ENE,69,5.0,11.0,84,0.00,,,0.00,1071,Wunderground v.1.15,2013-01-08 03:50:00,
2013-01-07 22:55:00,42.7,37.9,30.41,NE,36,5.0,11.0,83,0.00,,,0.00,1071,Wunderground v.1.15,2013-01-08 03:55:00,
2013-01-07 23:00:00,42.8,38.0,30.41,ENE,78,5.0,9.0,83,0.00,,,0.00,1071,Wunderground v.1.15,2013-01-08 04:00:00,
2013-01-07 23:10:00,42.8,37.4,30.41,ESE,108,6.0,6.0,81,0.00,,,0.00,1071,Wunderground v.1.15,2013-01-08 04:10:00,
2013-01-07 23:15:00,42.9,37.2,30.41,NE,51,5.0,9.0,80,0.00,,,0.00,1071,Wunderground v.1.15,2013-01-08 04:15:00,
2013-01-07 23:20:00,42.9,36.5,30.41,NE,54,5.0,5.0,78,0.00,,,0.00,1071,Wunderground v.1.15,2013-01-08 04:20:00,
2013-01-07 23:25:00,42.9,35.9,30.41,NE,44,5.0,6.0,76,0.00,,,0.00,1071,Wunderground v.1.15,2013-01-08 04:25:00,
2013-01-07 23:30:00,42.8,35.4,30.41,East,82,5.0,9.0,75,0.00,,,0.00,1071,Wunderground v.1.15,2013-01-08 04:30:00,
2013-01-07 23:35:00,42.8,35.4,30.41,North,11,5.0,9.0,75,0.00,,,0.00,1071,Wunderground v.1.15,2013-01-08 04:35:00,
2013-01-07 23:40:00,40.9,33.6,30.40,WSW,250,4.0,4.0,75,0.00,,,0.00,1071,Wunderground v.1.15,2013-01-08 04:40:00,
2013-01-07 23:45:00,42.3,34.9,30.40,NE,53,4.0,9.0,75,0.00,,,0.00,1071,Wunderground v.1.15,2013-01-08 04:45:00,
2013-01-07 23:50:00,42.2,35.2,30.40,ENE,74,4.0,4.0,76,0.00,,,0.00,1071,Wunderground v.1.15,2013-01-08 04:50:00,
2013-01-07 23:55:00,42.1,34.7,30.40,NE,51,4.0,9.0,75,0.00,,,0.00,1071,Wunderground v.1.15,2013-01-08 04:55:00,